Vorticity
6 -2 11 5 6 12 5 6 7 9 8 7 9 6 6 5 4 5 9 7 7 5 6 4 6 4 3 3 2 4 4 5 -1 4 6 4 2 3 3 6 7 8 4 4
4 7 5 6 5 5 5 5 6 7 9 6 5 4 8 10 10 7 4 6 4 5 7 4 5 4 4 4 3 4 3 5 4 5 5 3 2 5 9 8 7 6 2 2
3 4 4 4 5 4 5 4 5 5 7 8 8 6 6 7 7 4 6 6 7 4 4 4 3 2 6 4 6 3 6 4 4 5 6 4 6 10 6 5 6 5 3 5
6 7 6 6 5 4 5 6 5 5 5 15 14 16 1 9 7 5 4 6 5 2 3 3 6 6 7 8 1 5 4 5 6 9 11 12 7 7 7 8 5 1 7 5
2 5 7 6 6 6 7 6 7 8 6 6 11 17 -4 2 6 7 5 2 2 4 5 5 6 7 7 4 3 5 11 9 11 9 7 9 7 5 5 4 1 4 5 5
7 5 4 4 5 6 6 7 7 8 9 12 -6 16 18 4 12 5 4 4 3 4 6 8 7 6 7 8 12 11 12 7 4 4 8 6 4 3 3 4 7 7 7 8
8 6 10 17 17 17 17 17 16 15 15 19 6 12 -12 7 4 5 5 7 7 8 7 7 7 12 14 12 10 3 3 5 7 6 6 5 4 5 5 3 6 9 2 6
9 19 13 13 10 11 13 15 14 11 5 2 7 8 -0 7 6 7 6 4 8 8 8 11 12 10 6 7 5 5 7 6 5 6 5 7 7 5 7 11 8 4 11 11
9 9 9 7 6 6 5 5 7 6 7 8 5 14 13 6 7 8 11 5 13 7 11 9 5 6 6 6 7 5 3 5 7 6 8 3 4 8 15 10 -1 -0 -8 3
7 7 7 9 11 10 10 10 11 8 8 7 11 -14 15 2 -1 12 10 8 13 14 8 6 6 5 4 4 4 6 7 4 0 2 4 7 13 14 12 -3 1 16 -13 9
10 11 11 12 11 11 14 13 10 9 8 7 7 11 3 6 9 3 7 12 8 10 5 4 4 3 3 4 4 4 4 4 5 4 11 12 13 13 14 13 11 -3 12 13
8 7 10 8 7 9 10 10 9 9 9 9 5 9 14 5 2 8 11 12 11 6 5 6 5 4 4 3 3 3 3 2 6 10 7 14 8 7 7 1 11 12 12 16
-0 1 2 0 6 4 9 8 16 15 10 14 7 10 9 16 12 10 8 7 6 5 6 4 4 3 2 4 5 5 3 6 8 10 13 19 5 3 7 13 11 14 17 23
0 2 -1 4 3 2 1 9 10 11 15 10 17 6 11 7 8 9 8 7 6 4 4 4 6 3 5 3 2 4 8 10 16 13 11 10 12 11 10 13 14 14 28 27
1 2 2 4 1 4 9 12 14 14 15 15 20 18 12 13 12 7 5 5 4 1 5 3 4 4 4 3 7 6 14 15 11 9 9 9 9 11 14 13 16 31 23 24
4 2 0 1 -3 10 11 15 16 12 13 13 13 13 10 6 6 9 -0 3 3 4 -0 3 2 1 5 5 8 19 14 11 10 10 9 8 13 15 11 17 24 22 19 20
4 1 -1 0 -3 10 13 12 14 14 8 16 6 6 4 3 1 2 3 3 0 2 2 2 4 7 15 10 6 12 9 8 9 7 11 18 14 10 15 17 27 12 19 12
5 2 -2 1 0 16 21 11 15 12 14 5 3 4 3 1 3 2 6 2 2 1 4 2 5 12 14 13 10 7 12 10 9 14 17 12 10 12 15 24 13 17 15 11
5 2 0 -2 6 20 18 11 21 11 9 3 3 1 2 4 3 4 4 2 0 3 2 5 10 13 14 8 9 7 8 11 15 13 14 8 11 17 26 15 14 17 11 9
3 3 -2 -1 15 17 17 14 16 15 3 3 0 3 0 1 4 3 3 0 3 3 6 5 11 8 8 11 9 10 14 17 16 10 14 15 18 21 12 12 23 15 8 9
4 3 -1 3 14 17 6 8 2 5 2 3 8 4 4 7 4 2 1 4 4 6 11 12 8 14 11 11 13 13 14 16 9 13 17 17 17 13 14 31 13 10 7 12
5 4 -2 3 13 15 10 7 2 5 7 3 4 3 4 5 2 2 3 6 10 12 12 12 10 9 11 13 13 13 13 15 15 17 12 11 12 14 27 8 15 5 12 7
6 3 -3 13 15 14 5 6 3 5 2 1 4 8 5 3 5 6 9 11 10 11 12 8 7 9 13 13 12 16 15 16 15 12 16 21 25 33 11 20 4 11 11 7
4 1 7 16 24 11 8 6 3 2 3 5 6 2 4 6 7 8 9 9 10 9 5 8 11 13 13 17 19 17 14 15 20 33 34 36 34 6 21 3 6 13 8 10
5 5 10 18 16 7 4 4 3 4 4 5 3 5 5 8 6 7 11 12 8 8 10 12 13 15 16 18 17 13 19 31 27 25 30 33 -1 22 3 3 9 12 7 12
0 9 12 9 6 5 1 4 4 3 6 5 4 7 9 6 9 11 10 7 9 10 11 13 16 20 18 15 15 30 26 18 39 40 28 -4 22 6 1 7 10 11 7 14
Height
5816 5817 5821 5820 5821 5822 5824 5824 5823 5822 5822 5821 5820 5820 5819 5819 5818 5817 5816 5815 5814 5811 5808 5806 5804 5801 5798 5794 5790 5787 5782 5779 5774 5770 5766 5762 5757 5751 5746 5741 5737 5732 5728 5723
5817 5817 5818 5819 5820 5821 5821 5821 5821 5820 5820 5820 5819 5817 5816 5815 5814 5813 5812 5810 5808 5806 5804 5802 5799 5796 5792 5789 5785 5780 5776 5772 5768 5763 5758 5754 5748 5742 5737 5732 5726 5721 5717 5712
5816 5818 5818 5819 5819 5820 5819 5819 5819 5818 5818 5817 5816 5813 5812 5812 5811 5810 5808 5806 5804 5802 5799 5796 5793 5790 5786 5782 5778 5774 5769 5765 5761 5755 5750 5745 5739 5734 5728 5722 5717 5711 5706 5700
5816 5817 5817 5817 5817 5817 5816 5817 5816 5815 5815 5815 5814 5816 5808 5807 5807 5805 5803 5801 5799 5796 5793 5789 5786 5783 5779 5775 5771 5766 5762 5757 5752 5747 5741 5736 5730 5724 5718 5712 5705 5700 5693 5687
5815 5814 5814 5814 5814 5814 5813 5812 5812 5811 5811 5811 5811 5813 5801 5804 5801 5800 5798 5796 5793 5791 5787 5784 5780 5776 5772 5768 5763 5758 5752 5747 5742 5737 5731 5725 5719 5713 5706 5699 5692 5685 5677 5670
5811 5811 5811 5810 5810 5809 5808 5808 5807 5807 5806 5806 5806 5808 5802 5796 5797 5794 5792 5791 5787 5784 5781 5777 5773 5768 5764 5761 5755 5749 5743 5737 5732 5727 5720 5714 5707 5700 5693 5685 5676 5669 5662 5654
5808 5808 5807 5806 5805 5805 5804 5803 5803 5803 5802 5802 5801 5802 5795 5796 5792 5789 5786 5783 5780 5777 5773 5768 5764 5758 5753 5750 5744 5740 5734 5728 5720 5714 5708 5701 5693 5685 5676 5668 5660 5653 5645 5635
5805 5806 5804 5803 5803 5802 5801 5800 5800 5799 5799 5799 5796 5795 5789 5789 5786 5783 5779 5776 5772 5769 5765 5759 5755 5750 5745 5739 5734 5729 5723 5716 5709 5703 5695 5687 5679 5670 5662 5653 5644 5635 5626 5618
5804 5803 5803 5802 5801 5800 5799 5797 5797 5795 5794 5792 5792 5788 5784 5781 5778 5776 5773 5770 5766 5760 5756 5750 5746 5740 5737 5731 5725 5719 5713 5706 5698 5690 5682 5674 5665 5656 5646 5636 5628 5619 5608 5596
5802 5802 5801 5800 5798 5797 5795 5794 5793 5791 5788 5787 5789 5784 5780 5773 5770 5767 5766 5762 5756 5752 5747 5743 5738 5733 5728 5722 5715 5707 5699 5692 5684 5675 5666 5656 5646 5636 5626 5618 5607 5595 5584 5573
5800 5800 5800 5797 5795 5793 5791 5789 5787 5785 5783 5780 5779 5781 5773 5766 5763 5759 5756 5753 5747 5742 5738 5733 5729 5724 5717 5710 5702 5694 5686 5678 5668 5658 5647 5637 5627 5617 5606 5595 5584 5572 5561 5548
5798 5797 5795 5794 5792 5789 5787 5783 5780 5777 5775 5772 5770 5773 5763 5758 5753 5751 5748 5744 5741 5736 5730 5723 5716 5709 5702 5696 5689 5681 5672 5662 5651 5640 5629 5618 5607 5596 5585 5573 5561 5549 5539 5525
5796 5795 5793 5790 5787 5784 5781 5777 5774 5771 5767 5766 5760 5763 5752 5750 5745 5742 5737 5735 5728 5723 5717 5713 5708 5700 5693 5685 5676 5667 5656 5645 5633 5621 5610 5599 5588 5575 5564 5552 5540 5527 5514 5501
5793 5791 5789 5787 5783 5779 5774 5770 5765 5762 5760 5756 5756 5749 5750 5744 5738 5736 5731 5725 5721 5717 5711 5704 5697 5689 5681 5671 5661 5650 5638 5626 5614 5602 5590 5577 5568 5556 5545 5532 5519 5506 5494 5481
5789 5787 5785 5782 5779 5774 5769 5763 5758 5754 5751 5747 5749 5744 5740 5736 5733 5728 5722 5719 5713 5707 5701 5695 5687 5677 5666 5655 5643 5632 5620 5607 5594 5582 5570 5560 5548 5535 5523 5511 5499 5486 5475 5465
5784 5782 5780 5779 5774 5769 5763 5756 5752 5748 5744 5741 5737 5736 5732 5729 5723 5721 5715 5711 5705 5698 5691 5682 5671 5661 5649 5637 5625 5612 5599 5587 5577 5566 5554 5542 5529 5516 5505 5493 5482 5472 5462 5453
5778 5775 5773 5772 5768 5763 5756 5751 5747 5742 5737 5735 5732 5728 5724 5720 5714 5710 5702 5699 5691 5684 5675 5666 5656 5644 5630 5618 5605 5595 5583 5570 5558 5547 5536 5524 5512 5501 5490 5479 5468 5458 5449 5441
5772 5769 5766 5762 5758 5757 5747 5744 5741 5737 5732 5729 5726 5722 5717 5711 5707 5701 5695 5688 5680 5671 5662 5651 5638 5625 5613 5603 5592 5579 5567 5553 5541 5528 5517 5509 5497 5485 5474 5463 5454 5445 5437 5430
5765 5761 5757 5754 5750 5748 5741 5737 5733 5731 5729 5725 5721 5716 5711 5705 5699 5692 5685 5677 5668 5658 5646 5633 5622 5611 5599 5586 5574 5562 5551 5537 5524 5513 5502 5488 5480 5471 5460 5451 5442 5434 5427 5419
5759 5755 5752 5746 5741 5736 5732 5726 5728 5722 5719 5717 5713 5708 5702 5695 5689 5683 5674 5664 5652 5640 5627 5616 5605 5593 5580 5568 5555 5543 5532 5519 5505 5493 5489 5476 5465 5457 5448 5439 5431 5424 5417 5409
5751 5747 5744 5738 5733 5731 5725 5721 5718 5716 5713 5705 5700 5696 5689 5682 5674 5666 5656 5645 5634 5623 5612 5599 5588 5576 5564 5551 5537 5525 5514 5503 5490 5478 5470 5459 5451 5442 5436 5429 5421 5415 5408 5399
5743 5740 5736 5731 5727 5720 5717 5712 5709 5707 5701 5694 5688 5681 5674 5667 5659 5649 5639 5629 5617 5606 5595 5583 5570 5560 5548 5535 5520 5509 5499 5489 5477 5467 5455 5447 5439 5430 5425 5419 5413 5406 5399 5390
5737 5732 5728 5722 5721 5711 5705 5700 5697 5694 5688 5683 5676 5670 5662 5655 5645 5636 5625 5613 5602 5590 5578 5567 5554 5542 5530 5517 5504 5491 5480 5472 5461 5451 5442 5433 5427 5422 5417 5412 5407 5399 5392 5383
5729 5722 5717 5712 5712 5702 5698 5695 5688 5683 5678 5673 5666 5659 5650 5640 5630 5619 5608 5596 5586 5575 5562 5550 5537 5524 5513 5499 5486 5475 5464 5454 5443 5435 5426 5419 5415 5413 5409 5405 5399 5392 5384 5376
5718 5711 5707 5703 5698 5693 5688 5684 5677 5672 5665 5659 5652 5643 5634 5624 5613 5602 5593 5581 5570 5558 5546 5533 5519 5505 5492 5480 5470 5457 5447 5437 5428 5421 5415 5411 5409 5407 5404 5399 5392 5385 5378 5369
5708 5703 5696 5691 5685 5683 5678 5672 5665 5659 5653 5646 5637 5628 5617 5607 5598 5587 5577 5565 5553 5540 5528 5515 5502 5488 5475 5464 5453 5442 5432 5423 5416 5411 5408 5406 5403 5401 5398 5393 5386 5380 5372 5363